User: anonymous   Login
Location: Abyssinia Baptist Church
(32.7840°N, 96.7578°W)
Time: 01:17:40
(UTC+00:00)
Language:

Sich 1 - Orbit

View from above orbital plane
View from above orbital plane
View from above satellite
View from above satellite

Ground track
Ground track

The orbit data is extracted from the following two-line orbital elements,

1 23657U 95046A   22146.13414207  .00001178  00000-0  12949-3 0  9999
2 23657  82.5279   5.3882 0020644 225.5312 134.4217 14.86687047445095
Epoch (UTC): 26 May 2022 03:13:09
Eccentricity: 0.0020644
inclination: 82.5279°
perigee height: 594 km
apogee height: 623 km
right ascension of ascending node: 5.3882°
argument of perigee: 225.5312°
revolutions per day: 14.86687047
mean anomaly at epoch: 134.4217°
orbit number at epoch: 44509

The dashed part of the orbit path shows where the satellite is in the earth's shadow,  

DLR